ELECTRON KICK STAGE R/B, 59967

Orbit data source: Space-Track

ELECTRON KICK STAGE R/B, 59967 is space debris in SSO originally from a launch on Wed, 05 Jun 2024 UTC launched from the Rocket Lab Launch Complex (RLLC). Debris objects in space refer to the collection of defunct objects orbiting the Earth. Examples of debris include non-operational satellites, rocket bodies, and fragments generated from explosions, collisions, or faulty payload assembly.

Loading next visibility...
ELECTRON KICK STAGE R/B details
Identifier
59967, 2024-108C
Orbit
SSO
Last TLE update15 hours ago
Origin
Flag of USRocket Lab (US)
ManufacturerRocket Lab
MissionSpacecraft
Bus & MotorKICK STAGE, CURIE
Mass~50 kg wet, ~50 kg dry
Launch date (UTC)
2024-06-05 (8 months ago)
Launch vehicleUnknown
Launch site
Rocket Lab Launch Complex (RLLC)
Object type
Payload
Rocket body
Debris
Shape & HBRUnknown
Radar Cross SectionMedium (>0.1 m² and <1 m²)

Expand to show TLE details & history

TLE from 15 hours ago
0 ELECTRON KICK STAGE R/B
1 59967U 24108C   25047.42590618  .00201930  00000-0  20120-2 0  9996
2 59967  97.4457 208.6897 0022765 191.2072 168.8683 15.64716902 39416
Epoch: 2025-02-16T10:13Z
Definitive object data (Epoch: 2025-02-16T10:13:18.293Z)
Latitude-0.00008°
Longitude-91.29565°
Altitude392.29 km
Speed7.666 km/s
True Right ascension13h 54m 45s
True Declination0° 00' 00"
Sunlit
Object was in full shadow at TLE epoch
Visualization TLE readout
Latitude-44.32492°
Longitude82.06198°
Altitude378.02 km
Speed7.689 km/s
Apparent Right ascension20h 33m 46s
Apparent Declination-71° 32' 56"
Sunlit
Object is in daylight
Visualization observer readout
Local Sidereal Time03:48:01
Azimuth204.351° SW
Elevation-43.31°
Doppler factor1
Orbital elements
Apogee altitude386.326 km
Perigee altitude355.597 km
Semi-major axis6,749.098 km
Eccentricity0.0022765
Inclination97.4457°
RAAN208.6897°
Arg. of periapsis191.2072°
True anomaly168.91852°
Mean anomaly168.8683°
Eccentric anomaly168.89343°
Mean motion3.91448 °/min
BSTAR0.002012
Orbital period91.97 mins
Loading maneuver chart data...
Loading historical data...
Loading historical data...
Loading historical data...
Loading historical data...
Loading historical data...
Loading historical data...
Loading historical data...
Other satellites on launch #108 in the year 2024 (2024-06-05 UTC)

ELECTRON KICK STAGE R/B Visibility forecast

Observer location: undefined°, undefined

Span
Click to sort rows by Start time (UTC) header in descending order
Start Az.
Max El. time (UTC)
Max El. Az.
Max El.
End time (UTC)
End Az.
5 mins2025-02-17 10:54:25.626Z184.055° SSW2025-02-17 10:56:25.626Z231.117° WSW37.061°2025-02-17 10:59:25.626Z336.96° NNW
4 mins2025-02-17 23:37:25.626Z3.399° NNE2025-02-17 23:38:25.626Z337.77° N41.858°2025-02-17 23:41:25.626Z198.266° SSW
|